sat.trackr.live / text

‹ back to catalog

STARLINK-2575

NORAD 48396 · 2021-038AV

PAYLOAD ACTIVE UNKNOWN

§ Identity

Operator
Country
US
Launch date
2021-05-04
Launch site
AFETR
Launch vehicle
Mass (kg)
RCS (m²)

Purposes: comms

External: N2YO · Heavens-Above · Gunter

§ Orbital elements

Epoch: 2026-09-12T02:01:03.370656Z

Period
94.01 min
Inclination
53.1587°
Eccentricity
0.0001275
Mean motion
15.31703923 rev/d
Perigee alt
469.9 km
Apogee alt
471.6 km
Semi-major
6,848.9 km
B*
2.8831e-5
RAAN
185.0728°
Arg perigee
89.6915°
Mean anomaly
270.4232°
Rev number
29,722

§ Raw data

STARLINK-25751 48396U 21038AV  26255.08406679  .00000530  00000+0  28831-4 0  99972 48396  53.1587 185.0728 0001275  89.6915 270.4232 15.31703923297221

JSON: /api/v1/satellites/48396 · /tle

For live sub-satellite position, see the globe view (requires WebGL).

§ Visibility from observer

Set your observer location to see the next 7 days of passes ≥ 10°. The values pass through the URL so the page stays shareable.

No JS? Fill the form by hand. The geolocation button needs JavaScript.